Weather in Elbasan

Albania     41°06′37″N   20°04′58″E
temp.,
°C
wind,
m/s
gust,
m/s
humid.,
%
clouds,
%
prec.,
mm/h
press.,
hPa
HPBL,
m
18 may, tue
tue1823:00+17ne1160100 0.0 101015
02:00+17n116699 0.1 101116
05:00+14sse118616 0.9 101211
08:00+18sw117025 1.8 1013155
11:00+21wnw45454 0.1 10141746
14:00+22wnw56370 0.1 10141921
17:00+21wnw443895 0.0 10151322
20:00+15ssw01561 0.0 101511
19 may, wed
wed1923:00+13e22595 0.0 101516
02:00+13e22525 0.0 101516
05:00+12e22425 0.0 101414
08:00+18nne11360 0.0 1014187
11:00+21w23375 0.0 10131011
14:00+22w88435 0.0 10131601
17:00+20w345144 0.0 10131054
20:00+17w117298 0.0 101422
20 may, thu
thu2023:00+16ssw117844 0.1 101420
02:00+13ssw11924 0.5 101311
05:00+11sse119830 0.9 101318
08:00+14wsw228230 2.3 1013493
11:00+15wnw247398 4.0 1014652
14:00+18w445626 4.9 10131627
17:00+17w446153 0.9 10131254
20:00+12w11814 1.5 101412
21 may, fri
fri2123:00+11ese22904 0.5 101516
02:00+10e228846 0.6 101412
05:00+9ene21864 0.0 101412
08:00+14nnw11680 0.0 1015387
11:00+18wnw24453 0.0 10151637
14:00+21nnw56366 0.0 10142293
17:00+20nnw67435 0.0 10151874
20:00+13nnw12750 0.0 101619
22 may, sat
sat2223:00+11ese22790 0.0 101814
02:00+10ene22720 0.0 101814
05:00+10ene22680 0.0 101717
08:00+15ne11540 0.0 1018287
11:00+20wnw21411 0.0 10171035
14:00+22w333418 0.0 10171568
17:00+21w43400 0.0 10171098
20:00+15wsw01620 0.0 101811